| time (UTC) | temp C | wind direction | speed KPH | gust KPH | rain 1hr cm | rain 24hr cm | rain mn cm | humidity % | barometer mb |
| 20260506191545 | 12 | 277 | 8.0 | 20.9 | 0.00 | 2.69 | 0.36 | 63 | 1013.3 |
| 20260506190044 | 12 | 290 | 14.5 | 22.5 | 0.00 | 2.69 | 0.36 | 62 | 1013.4 |
| 20260506184544 | 12 | 287 | 16.1 | 25.7 | 0.00 | 2.82 | 0.36 | 60 | 1013.3 |
| 20260506183043 | 12 | 360 | 19.3 | 27.4 | 0.00 | 2.82 | 0.36 | 63 | 1013.2 |
| 20260506181542 | 12 | 360 | 12.9 | 25.7 | 0.00 | 2.82 | 0.36 | 62 | 1013.2 |
| 20260506180044 | 12 | 309 | 22.5 | 32.2 | 0.00 | 2.82 | 0.36 | 61 | 1013.2 |
| 20260506174546 | 12 | 302 | 19.3 | 27.4 | 0.00 | 2.97 | 0.36 | 62 | 1013.5 |
| 20260506173046 | 12 | 284 | 22.5 | 29.0 | 0.00 | 2.97 | 0.36 | 66 | 1013.5 |
| 20260506171549 | 12 | 272 | 9.7 | 29.0 | 0.00 | 2.97 | 0.36 | 64 | 1013.5 |
| 20260506170040 | 12 | 360 | 14.5 | 27.4 | 0.00 | 2.97 | 0.36 | 63 | 1013.5 |
| 20260506164551 | 12 | 360 | 17.7 | 25.7 | 0.00 | 2.97 | 0.36 | 63 | 1013.6 |
| 20260506163035 | 12 | 276 | 17.7 | 25.7 | 0.00 | 2.97 | 0.36 | 63 | 1013.6 |
| 20260506161534 | 12 | 360 | 16.1 | 22.5 | 0.00 | 2.97 | 0.36 | 63 | 1013.4 |
| 20260506160131 | 12 | 360 | 14.5 | 25.7 | 0.00 | 2.97 | 0.36 | 68 | 1013.6 |
| 20260506154527 | 11 | 288 | 16.1 | 24.1 | 0.00 | 2.97 | 0.36 | 66 | 1013.3 |
| 20260506153025 | 11 | 329 | 14.5 | 22.5 | 0.00 | 2.97 | 0.36 | 68 | 1012.8 |
| 20260506151524 | 11 | 360 | 14.5 | 22.5 | 0.00 | 2.97 | 0.36 | 66 | 1012.9 |
| 20260506150020 | 11 | 360 | 12.9 | 19.3 | 0.00 | 2.97 | 0.36 | 71 | 1012.9 |
| 20260506144516 | 11 | 313 | 14.5 | 20.9 | 0.00 | 2.97 | 0.36 | 74 | 1012.6 |
| 20260506143014 | 10 | 279 | 12.9 | 24.1 | 0.00 | 2.97 | 0.36 | 74 | 1012.4 |
| 20260506141509 | 10 | 360 | 16.1 | 25.7 | 0.00 | 2.97 | 0.36 | 77 | 1012.1 |
| 20260506140006 | 9 | 360 | 12.9 | 22.5 | 0.00 | 2.97 | 0.36 | 79 | 1012.2 |
| 20260506134504 | 8 | 360 | 16.1 | 22.5 | 0.00 | 2.97 | 0.36 | 79 | 1012.1 |
| 20260506133001 | 8 | 360 | 16.1 | 22.5 | 0.00 | 2.97 | 0.36 | 81 | 1012.1 |
| 20260506131559 | 8 | 296 | 14.5 | 20.9 | 0.00 | 2.97 | 0.36 | 82 | 1011.6 |
| 20260506130055 | 8 | 360 | 12.9 | 20.9 | 0.00 | 2.97 | 0.36 | 85 | 1011.4 |
| 20260506124554 | 7 | 360 | 14.5 | 20.9 | 0.00 | 2.97 | 0.36 | 86 | 1011.4 |
| 20260506123053 | 7 | 360 | 12.9 | 22.5 | 0.00 | 2.97 | 0.36 | 85 | 1011.2 |
| 20260506121600 | 7 | 271 | 12.9 | 19.3 | 0.00 | 2.97 | 0.36 | 87 | 1011.0 |
| 20260506120115 | 6 | 360 | 8.0 | 14.5 | 0.00 | 2.97 | 0.36 | 89 | 1010.6 |
| 20260506114549 | 6 | 290 | 6.4 | 12.9 | 0.00 | 2.97 | 0.36 | 90 | 1010.4 |
| 20260506113049 | 6 | 286 | 8.0 | 12.9 | 0.00 | 2.97 | 0.36 | 91 | 1010.5 |
| 20260506111548 | 6 | 360 | 4.8 | 9.7 | 0.00 | 2.97 | 0.36 | 92 | 1010.7 |
| 20260506110047 | 6 | 273 | 4.8 | 11.3 | 0.00 | 2.97 | 0.36 | 92 | 1010.6 |
| 20260506104544 | 6 | 274 | 4.8 | 9.7 | 0.00 | 2.97 | 0.36 | 92 | 1010.0 |
| 20260506103043 | 6 | 275 | 3.2 | 9.7 | 0.00 | 2.97 | 0.36 | 91 | 1009.8 |
| 20260506101546 | 6 | 310 | 3.2 | 4.8 | 0.00 | 2.97 | 0.36 | 91 | 1009.3 |
| 20260506100043 | 6 | 311 | 1.6 | 4.8 | 0.00 | 2.97 | 0.36 | 91 | 1009.1 |
| 20260506094546 | 6 | 311 | 0.0 | 6.4 | 0.00 | 2.97 | 0.36 | 91 | 1009.0 |
| 20260506093047 | 6 | 310 | 3.2 | 12.9 | 0.03 | 2.97 | 0.36 | 91 | 1009.4 |
| 20260506091541 | 6 | 360 | 14.5 | 19.3 | 0.03 | 2.97 | 0.36 | 91 | 1010.0 |
| 20260506090040 | 6 | 360 | 6.4 | 9.7 | 0.03 | 2.97 | 0.36 | 91 | 1009.2 |
| 20260506084536 | 6 | 360 | 3.2 | 6.4 | 0.03 | 2.97 | 0.36 | 91 | 1009.1 |
| 20260506083041 | 6 | 329 | 3.2 | 6.4 | 0.00 | 2.92 | 0.33 | 91 | 1009.6 |
| 20260506081535 | 6 | 360 | 4.8 | 6.4 | 0.03 | 2.92 | 0.33 | 90 | 1009.6 |
| 20260506073031 | 6 | 360 | 6.4 | 12.9 | 0.13 | 2.92 | 0.33 | 91 | 1008.9 |
| 20260506071528 | 6 | 325 | 9.7 | 14.5 | 0.13 | 2.90 | 0.30 | 92 | 1009.7 |
| 20260506061531 | 7 | 360 | 11.3 | 16.1 | 0.18 | 2.79 | 0.18 | 94 | 1009.3 |
| 20260506044517 | 7 | 360 | 8.0 | 14.5 | 0.10 | 2.59 | 2.59 | 93 | 1009.0 |
| 20260506043013 | 7 | 360 | 6.4 | 9.7 | 0.20 | 2.59 | 2.59 | 93 | 1008.9 |
| 20260506041507 | 7 | 360 | 4.8 | 11.3 | 0.23 | 2.57 | 2.57 | 93 | 1009.1 |
| 20260506040006 | 7 | 303 | 4.8 | 8.0 | 0.25 | 2.54 | 2.54 | 94 | 1009.2 |
| 20260506034504 | 8 | 298 | 3.2 | 4.8 | 0.30 | 2.49 | 2.49 | 94 | 1009.2 |
| 20260506033004 | 8 | 299 | 0.0 | 3.2 | 0.28 | 2.39 | 2.39 | 94 | 1009.3 |
| 20260506031503 | 8 | 299 | 0.0 | 0.0 | 0.30 | 2.34 | 2.34 | 94 | 1009.2 |
| 20260506030002 | 8 | 299 | 1.6 | 3.2 | 0.33 | 2.29 | 2.29 | 94 | 1009.1 |
| 20260506024501 | 8 | 300 | 0.0 | 3.2 | 0.28 | 2.18 | 2.18 | 94 | 1009.7 |
| 20260506023100 | 8 | 360 | 1.6 | 3.2 | 0.28 | 2.11 | 2.11 | 93 | 1009.9 |
| 20260506021612 | 8 | 299 | 0.0 | 4.8 | 0.28 | 2.03 | 2.03 | 93 | 1009.8 |
| 20260506020057 | 8 | 311 | 3.2 | 8.0 | 0.25 | 1.96 | 1.96 | 93 | 1009.7 |
| 20260506014601 | 8 | 315 | 6.4 | 9.7 | 0.23 | 1.91 | 1.91 | 93 | 1009.1 |
| 20260506013054 | 8 | 327 | 1.6 | 4.8 | 0.18 | 1.83 | 1.83 | 93 | 1009.1 |
| 20260506011558 | 8 | 342 | 1.6 | 3.2 | 0.13 | 1.75 | 1.75 | 92 | 1009.0 |
| 20260506010055 | 8 | 340 | 1.6 | 6.4 | 0.10 | 1.70 | 1.70 | 92 | 1008.9 |
| 20260506004623 | 8 | 360 | 3.2 | 6.4 | 0.10 | 1.68 | 1.68 | 93 | 1008.6 |
| 20260506003049 | 8 | 360 | 4.8 | 8.0 | 0.13 | 1.65 | 1.65 | 93 | 1008.7 |
| 20260506001548 | 8 | 360 | 4.8 | 8.0 | 0.15 | 1.63 | 1.63 | 93 | 1008.6 |
| 20260506000048 | 8 | 360 | 6.4 | 14.5 | 0.18 | 1.60 | 1.60 | 93 | 1008.7 |
| 20260505234608 | 9 | 322 | 4.8 | 9.7 | 0.20 | 1.57 | 1.57 | 94 | 1008.8 |
| 20260505233042 | 8 | 331 | 8.0 | 16.1 | 0.20 | 1.52 | 1.52 | 93 | 1008.7 |
| 20260505231539 | 9 | 360 | 9.7 | 19.3 | 0.18 | 1.45 | 1.45 | 93 | 1008.5 |
| 20260505230037 | 9 | 329 | 4.8 | 12.9 | 0.15 | 1.42 | 1.42 | 93 | 1008.2 |
| 20260505224536 | 9 | 360 | 6.4 | 12.9 | 0.10 | 1.37 | 1.37 | 92 | 1008.1 |
| 20260505223046 | 10 | 342 | 6.4 | 16.1 | 0.15 | 1.32 | 1.32 | 92 | 1008.0 |
| 20260505221541 | 10 | 360 | 4.8 | 14.5 | 0.23 | 1.30 | 1.30 | 93 | 1008.0 |
| 20260505220035 | 9 | 15 | 4.8 | 16.1 | 0.41 | 1.27 | 1.27 | 93 | 1008.3 |
| 20260505214540 | 10 | 319 | 3.2 | 6.4 | 0.61 | 1.27 | 1.27 | 93 | 1008.3 |
| 20260505213033 | 10 | 316 | 3.2 | 8.0 | 0.58 | 1.17 | 1.17 | 93 | 1008.2 |
| 20260505211533 | 9 | 360 | 6.4 | 14.5 | 0.48 | 1.04 | 1.04 | 92 | 1008.2 |
| 20260505210033 | 10 | 360 | 8.0 | 14.5 | 0.33 | 0.84 | 0.84 | 91 | 1007.8 |
| 20260505204529 | 10 | 318 | 12.9 | 19.3 | 0.18 | 0.66 | 0.66 | 91 | 1007.7 |
| 20260505203027 | 10 | 317 | 17.7 | 25.7 | 0.15 | 0.58 | 0.58 | 91 | 1007.6 |
| 20260505201528 | 11 | 304 | 11.3 | 16.1 | 0.20 | 0.56 | 0.56 | 93 | 1007.7 |
| 20260505200028 | 11 | 360 | 8.0 | 14.5 | 0.23 | 0.51 | 0.51 | 93 | 1007.8 |
| 20260505194523 | 11 | 360 | 16.1 | 24.1 | 0.23 | 0.48 | 0.48 | 92 | 1008.0 |
| 20260505193020 | 11 | 360 | 14.5 | 22.5 | 0.20 | 0.43 | 0.43 | 92 | 1008.4 |